Location: Schommer Observatory
(40.5200°N, 74.4500°W)
Time: 05:56:24
(UTC-05:00)

Amateur Radio Satellites - All Passes

Search period start: 20 January 2018 05:26
Search period end: 21 January 2018 05:26
Location: Schommer Observatory, 40.5200°N, 74.4500°W

Satellite Date Start Highest point End Downlink Frequencies (MHz)
Time Altitude Azimuth
STRAND 1 20 Jan 05:29:44 05:33:25 21° 64° (ENE) 05:37:08 437.568
NUDT-PHONESAT 20 Jan 05:29:46 05:32:21 18° 94° (E) 05:34:54 437.300
HO-68 20 Jan 05:30:27 05:34:30 16° 90° (E) 05:38:31 435.675
CUTE-I 20 Jan 05:35:54 05:40:31 30° 96° (E) 05:45:08 437.470
XW-2B 20 Jan 05:42:30 05:46:04 40° 98° (E) 05:49:35 145.730 - 145.750
SO-50 20 Jan 05:58:32 06:02:55 55° 306° (NW) 06:07:22 436.795
LilacSat-2 20 Jan 06:09:09 06:12:57 78° 283° (WNW) 06:16:41 437.200
XW-2C 20 Jan 06:12:37 06:16:24 77° 283° (WNW) 06:20:07 145.795 - 145.815
SEEDS 20 Jan 06:14:45 06:17:19 16° 92° (E) 06:19:52 437.485
RS-15 20 Jan 06:15:40 06:23:59 22° 99° (E) 06:32:14 29.354- 29.394
DOVE 4 20 Jan 06:18:28 06:20:18 12° 296° (WNW) 06:22:10 437.250
AO-7 20 Jan 06:18:33 06:22:25 14° 315° (NW) 06:26:17 .
CUTE 1.7 + AOD 2 20 Jan 06:24:24 06:28:16 35° 97° (E) 06:32:06 437.475
CUBEBUG 2 20 Jan 06:26:41 06:30:43 27° 95° (E) 06:34:41 437.445
STARS 20 Jan 06:29:47 06:32:03 14° 268° (W) 06:34:20 437.465
UWE-3 20 Jan 06:34:41 06:37:52 18° 92° (E) 06:40:59 435.000/436.395/437.385
FO-29 20 Jan 06:49:52 06:56:35 55° 72° (ENE) 07:02:32 435.910
KAITUO 1B 20 Jan 06:50:06 06:53:31 36° 287° (WNW) 06:56:53 145.475/437.950
XW-2F 20 Jan 06:50:22 06:53:35 28° 289° (WNW) 06:56:46 145.980 - 146.000
XW-2D 20 Jan 06:59:37 07:02:24 20° 292° (WNW) 07:05:10 145.860 - 145.880
ZACube-1 20 Jan 07:00:37 07:03:36 17° 92° (E) 07:06:31 437.345
FALCONSAT 3 20 Jan 07:01:03 07:04:25 34° 186° (S) 07:07:47 435.103
NUDT-PHONESAT 20 Jan 07:03:03 07:06:10 27° 289° (WNW) 07:09:16 437.300
STRAND 1 20 Jan 07:07:20 07:12:14 48° 261° (W) 07:17:11 437.568
AO-73 20 Jan 07:07:54 07:10:58 18° 92° (E) 07:13:58 145.935
CUTE-I 20 Jan 07:15:47 07:20:33 34° 292° (WNW) 07:25:19 437.470
HO-68 20 Jan 07:15:51 07:23:03 88° 286° (WNW) 07:30:14 435.675
XW-2B 20 Jan 07:17:58 07:19:51 13° 294° (WNW) 07:21:43 145.730 - 145.750
AAUSAT CUBESAT 2 20 Jan 07:33:26 07:37:28 52° 100° (E) 07:41:27 437.432
XW-2A 20 Jan 07:37:02 07:40:18 46° 100° (E) 07:43:30 145.665 - 145.685
Oscar 11 20 Jan 07:41:41 07:45:13 24° 95° (E) 07:48:44 .
SEEDS 20 Jan 07:49:16 07:53:09 39° 288° (WNW) 07:57:01 437.485
YUBILEINY 20 Jan 07:55:53 07:57:43 11° 55° (NE) 07:59:32 435.215
TIGRISAT 20 Jan 07:59:10 08:02:27 21° 66° (ENE) 08:05:48 435.000
CUTE 1.7 + AOD 2 20 Jan 08:00:50 08:03:50 19° 293° (WNW) 08:06:49 437.475
CUBEBUG 2 20 Jan 08:03:04 08:07:16 32° 290° (WNW) 08:11:27 437.445
UWE-3 20 Jan 08:10:02 08:14:30 45° 288° (WNW) 08:18:54 435.000/436.395/437.385
UNISAT 6 20 Jan 08:13:29 08:17:23 31° 69° (ENE) 08:21:23 437.425
DELFI C3 20 Jan 08:21:13 08:21:36 10° 90° (E) 08:21:59 145.870
RS-15 20 Jan 08:22:21 08:34:42 85° 119° (ESE) 08:46:55 29.354- 29.394
PCSat 20 Jan 08:22:36 08:24:44 12° 102° (ESE) 08:26:53 145.827
ZACube-1 20 Jan 08:35:43 08:40:05 45° 287° (WNW) 08:44:21 437.345
FO-29 20 Jan 08:36:17 08:41:48 25° 265° (W) 08:46:53 435.910
FALCONSAT 3 20 Jan 08:40:27 08:43:00 18° 201° (SSW) 08:45:32 435.103
PRISM 20 Jan 08:42:43 08:44:46 14° 64° (ENE) 08:46:50 437.425
AO-73 20 Jan 08:43:04 08:47:22 43° 288° (WNW) 08:51:35 145.935
HO-68 20 Jan 09:05:23 09:09:47 18° 305° (NW) 09:14:12 435.675
Max Valier Satellite 20 Jan 09:08:16 09:11:21 24° 96° (E) 09:14:24 145.860
AAUSAT CUBESAT 2 20 Jan 09:10:35 09:12:26 13° 296° (WNW) 09:14:17 437.432
BEESAT 3 20 Jan 09:15:16 09:19:01 41° 116° (ESE) 09:22:47 437.485
Oscar 11 20 Jan 09:17:36 09:21:19 28° 291° (WNW) 09:25:01 .
EO-88 20 Jan 09:28:52 09:32:02 28° 96° (E) 09:35:11 145.990 - 145.960
TIGRISAT 20 Jan 09:34:47 09:38:51 37° 263° (W) 09:43:03 435.000
AIST 2D 20 Jan 09:38:21 09:41:05 21° 70° (ENE) 09:43:48 435.315
YUBILEINY 20 Jan 09:48:04 09:56:41 59° 78° (ENE) 10:05:12 435.215
EO-79 20 Jan 09:49:34 09:50:37 11° 62° (ENE) 09:51:41 145.935-145.965
UNISAT 6 20 Jan 09:50:34 09:54:06 23° 266° (W) 09:57:43 437.425
DELFI C3 20 Jan 09:52:48 09:56:39 55° 285° (WNW) 10:00:29 145.870
BEESAT 2 20 Jan 10:01:27 10:05:04 33° 115° (ESE) 10:08:43 435.950
PCSat 20 Jan 10:01:56 10:07:20 84° 299° (WNW) 10:12:48 145.827
O/OREOS (USA 219) 20 Jan 10:07:50 10:12:16 62° 66° (ENE) 10:16:42 437.305
PRISM 20 Jan 10:15:41 10:19:36 48° 260° (W) 10:23:34 437.425
POLYITAN 1 20 Jan 10:21:39 10:25:05 24° 68° (ENE) 10:28:32 437.675
NANOSAT C BR1 20 Jan 10:37:38 10:41:22 31° 70° (ENE) 10:45:07 145.865
RS-15 20 Jan 10:37:45 10:48:43 36° 325° (NW) 10:59:30 29.354- 29.394
Max Valier Satellite 20 Jan 10:42:14 10:45:00 20° 291° (WNW) 10:47:46 145.860
LO-87 20 Jan 10:50:22 10:53:43 34° 98° (E) 10:57:02 145.935 - 145.965
QB50P2 20 Jan 10:50:26 10:54:34 57° 74° (ENE) 10:58:45 145.880/145.840
BEESAT 3 20 Jan 10:53:45 10:56:42 20° 314° (NW) 10:59:40 437.485
EO-88 20 Jan 11:02:59 11:05:27 17° 292° (WNW) 11:07:53 145.990 - 145.960
AO-85 20 Jan 11:05:37 11:08:32 20° 111° (ESE) 11:11:36 145.980
Oscar 19 20 Jan 11:07:53 11:09:41 12° 59° (ENE) 11:11:30 437.125/150
AIST 2D 20 Jan 11:11:24 11:14:07 21° 265° (W) 11:16:51 435.315
DUCHIFAT 1 20 Jan 11:21:13 11:25:24 86° 74° (ENE) 11:29:39 145.980
EO-79 20 Jan 11:21:34 11:25:46 70° 258° (WSW) 11:30:01 145.935-145.965
ESTCUBE 1 20 Jan 11:24:10 11:28:39 68° 101° (ESE) 11:33:05 437.505/2401.250
SPROUT 20 Jan 11:30:15 11:33:09 18° 93° (E) 11:36:04 437.525
BEESAT 2 20 Jan 11:39:34 11:42:50 23° 312° (NW) 11:46:07 435.950
AO-91 20 Jan 11:44:42 11:46:48 16° 67° (ENE) 11:48:57 145.960
YUBILEINY 20 Jan 11:45:47 11:52:52 29° 277° (W) 11:59:56 435.215
PCSat 20 Jan 11:48:30 11:51:35 15° 319° (NW) 11:54:40 145.827
O/OREOS (USA 219) 20 Jan 11:49:28 11:51:05 12° 262° (W) 11:52:43 437.305
POLYITAN 1 20 Jan 11:57:05 12:00:43 28° 264° (W) 12:04:24 437.675
NANOSAT C BR1 20 Jan 12:13:54 12:17:06 21° 266° (W) 12:20:19 145.865
Gurwin Techsat 1B 20 Jan 12:23:59 12:29:00 45° 70° (ENE) 12:34:03 435.225
LO-87 20 Jan 12:24:44 12:26:47 15° 293° (WNW) 12:28:50 145.935 - 145.965
BUGSAT 1 20 Jan 12:25:18 12:29:21 80° 257° (WSW) 12:33:30 437.445
QB50P2 20 Jan 12:29:12 12:30:42 12° 270° (W) 12:32:13 145.880/145.840
Oscar 19 20 Jan 12:42:59 12:48:12 89° 74° (ENE) 12:53:26 437.125/150
AO-85 20 Jan 12:44:59 12:48:39 35° 310° (NW) 12:52:35 145.980
SO-50 20 Jan 12:50:23 12:53:32 17° 42° (NE) 12:56:41 436.795
RS-15 20 Jan 12:57:46 13:06:19 21° 359° (N) 13:14:37 29.354- 29.394
VELOX 1 20 Jan 13:02:58 13:07:23 81° 283° (WNW) 13:11:46 145.980
ESTCUBE 1 20 Jan 13:03:01 13:04:51 12° 298° (WNW) 13:06:40 437.505/2401.250
SPROUT 20 Jan 13:05:10 13:09:10 39° 289° (WNW) 13:13:10 437.525
UKube-1 20 Jan 13:12:16 13:14:23 13° 92° (E) 13:16:30 .
AO-91 20 Jan 13:20:18 13:23:07 24° 264° (W) 13:25:59 145.960
DX 1 20 Jan 13:21:26 13:25:13 29° 97° (E) 13:29:00 434.975-435.025
AO-7 20 Jan 13:29:29 13:37:07 41° 61° (ENE) 13:44:46 .
ITAMSAT 1 20 Jan 13:49:35 13:53:20 21° 63° (ENE) 13:57:06 435.822/435.867
Gurwin Techsat 1B 20 Jan 14:05:02 14:09:08 22° 266° (W) 14:13:15 435.225
50 SAT 20 Jan 14:09:17 14:12:23 66° 284° (WNW) 14:15:27 437.505
ITUPSAT 1 20 Jan 14:17:10 14:18:39 11° 90° (E) 14:20:09 437.325
Oscar 19 20 Jan 14:27:38 14:28:10 10° 272° (W) 14:28:41 437.125/150
SO-50 20 Jan 14:29:46 14:34:29 73° 240° (WSW) 14:39:14 436.795
M-CUBED/EXP-1 PRIME 20 Jan 14:33:29 14:36:01 16° 61° (ENE) 14:38:30 437.505
UKube-1 20 Jan 14:46:30 14:50:41 51° 287° (WNW) 14:54:51 .
MOZHAYETS 4 20 Jan 14:50:52 14:55:23 48° 100° (E) 14:59:49
CUBESAT XI-V 20 Jan 14:54:25 14:56:26 13° 90° (E) 14:58:25 437.345
BEESAT 20 Jan 14:54:58 14:59:09 29° 96° (E) 15:03:19 436.000
DX 1 20 Jan 14:57:45 15:01:16 25° 293° (WNW) 15:04:46 434.975-435.025
RS-15 20 Jan 15:13:26 15:23:57 34° 34° (NE) 15:33:56 29.354- 29.394
AO-7 20 Jan 15:21:49 15:29:43 46° 259° (W) 15:37:43 .
ITAMSAT 1 20 Jan 15:27:26 15:32:25 49° 260° (W) 15:37:27 435.822/435.867
DOVE 4 20 Jan 15:43:55 15:48:09 58° 74° (ENE) 15:52:15 437.250
ITUPSAT 1 20 Jan 15:52:09 15:56:58 74° 286° (WNW) 16:01:46 437.325
HO-68 20 Jan 16:01:12 16:04:08 13° 51° (NE) 16:07:03 435.675
M-CUBED/EXP-1 PRIME 20 Jan 16:05:48 16:10:04 51° 255° (WSW) 16:14:06 437.505
XW-2D 20 Jan 16:07:05 16:08:57 13° 66° (ENE) 16:10:49 145.860 - 145.880
XW-2B 20 Jan 16:23:37 16:26:25 20° 68° (ENE) 16:29:13 145.730 - 145.750
KKS-1 20 Jan 16:24:33 16:27:19 16° 93° (E) 16:30:04 437.445
MOZHAYETS 4 20 Jan 16:29:06 16:32:07 17° 296° (WNW) 16:35:07
CUBESAT XI-V 20 Jan 16:29:37 16:34:11 61° 286° (WNW) 16:38:42 437.345
BEESAT 20 Jan 16:32:44 16:36:50 29° 292° (WNW) 16:40:55 436.000
LilacSat-2 20 Jan 16:50:05 16:53:46 45° 74° (ENE) 16:57:29 437.200
NO-84 20 Jan 16:51:37 16:54:44 69° 134° (SE) 16:57:39 435.350 FM
XW-2C 20 Jan 16:52:54 16:56:34 44° 73° (ENE) 17:00:14 145.795 - 145.815
CUTE-I 20 Jan 16:57:10 17:02:13 47° 70° (ENE) 17:07:17 437.470
SEEDS 20 Jan 17:07:18 17:08:41 11° 63° (ENE) 17:10:04 437.485
PCSat 20 Jan 17:08:40 17:11:13 13° 39° (NE) 17:13:46 145.827
CUTE 1.7 + AOD 2 20 Jan 17:16:40 17:20:08 24° 69° (ENE) 17:23:35 437.475
CUBEBUG 2 20 Jan 17:24:45 17:27:57 20° 66° (ENE) 17:31:14 437.445
DOVE 4 20 Jan 17:24:59 17:26:10 11° 269° (W) 17:27:21 437.250
RS-15 20 Jan 17:26:09 17:37:54 85° 241° (WSW) 17:49:00 29.354- 29.394
KAITUO 1B 20 Jan 17:28:32 17:32:18 89° 95° (E) 17:36:05 145.475/437.950
XW-2F 20 Jan 17:29:33 17:33:20 66° 259° (W) 17:37:08 145.980 - 146.000
UWE-3 20 Jan 17:32:02 17:34:19 14° 63° (ENE) 17:36:38 435.000/436.395/437.385
BEESAT 3 20 Jan 17:32:18 17:35:28 23° 48° (NE) 17:38:34 437.485
XW-2D 20 Jan 17:39:03 17:42:43 43° 261° (W) 17:46:23 145.860 - 145.880
NUDT-PHONESAT 20 Jan 17:40:19 17:44:03 68° 260° (W) 17:47:47 437.300
HO-68 20 Jan 17:43:27 17:50:31 67° 70° (ENE) 17:57:36 435.675
ZACube-1 20 Jan 17:56:45 17:58:54 13° 63° (ENE) 18:01:04 437.345
XW-2B 20 Jan 17:57:04 18:00:23 28° 264° (W) 18:03:43 145.730 - 145.750
KKS-1 20 Jan 17:59:49 18:04:05 46° 288° (WNW) 18:08:20 437.445
AO-73 20 Jan 18:03:37 18:05:53 14° 63° (ENE) 18:08:11 145.935
XW-2A 20 Jan 18:08:23 18:10:26 15° 68° (ENE) 18:12:28 145.665 - 145.685
STARS 20 Jan 18:16:40 18:21:05 78° 285° (WNW) 18:25:30 437.465
BEESAT 2 20 Jan 18:19:23 18:22:24 20° 46° (NE) 18:25:23 435.950
AAUSAT CUBESAT 2 20 Jan 18:22:53 18:26:34 32° 71° (ENE) 18:30:15 437.432
LilacSat-2 20 Jan 18:26:41 18:28:16 12° 269° (W) 18:29:51 437.200
XW-2C 20 Jan 18:29:24 18:30:56 12° 269° (W) 18:32:30 145.795 - 145.815
NO-84 20 Jan 18:30:31 18:32:08 14° 332° (NNW) 18:33:44 435.350 FM
Oscar 11 20 Jan 18:36:26 18:39:28 19° 66° (ENE) 18:42:31 .
CUTE-I 20 Jan 18:38:28 18:42:28 21° 267° (W) 18:46:29 437.470
SEEDS 20 Jan 18:39:37 18:43:48 64° 259° (W) 18:48:00 437.485
PCSat 20 Jan 18:50:10 18:55:37 71° 60° (ENE) 19:01:00 145.827
CUTE 1.7 + AOD 2 20 Jan 18:52:09 18:55:50 28° 264° (W) 18:59:31 437.475
CUBEBUG 2 20 Jan 19:00:14 19:04:15 37° 263° (W) 19:08:28 437.445
UWE-3 20 Jan 19:05:52 19:10:12 59° 260° (W) 19:14:42 435.000/436.395/437.385
BEESAT 3 20 Jan 19:09:31 19:13:00 32° 245° (WSW) 19:16:26 437.485
STRAND 1 20 Jan 19:17:50 19:22:56 59° 101° (E) 19:28:00 437.568
nSIGHT-1 20 Jan 19:18:30 19:20:20 15° 130° (SE) 19:22:10 .
ZACube-1 20 Jan 19:30:12 19:34:35 62° 259° (W) 19:39:06 437.345
ISS 20 Jan 19:30:37 19:32:17 13° 130° (SE) 19:33:55 437.550
HO-68 20 Jan 19:33:22 19:38:44 23° 267° (W) 19:44:08 435.675
AO-85 20 Jan 19:35:21 19:39:22 24° 47° (NE) 19:43:34 145.980
AO-73 20 Jan 19:37:11 19:41:33 60° 260° (W) 19:46:03 145.935
XW-2A 20 Jan 19:39:51 19:42:50 28° 263° (W) 19:45:52 145.665 - 145.685
RS-15 20 Jan 19:41:04 19:48:21 20° 262° (W) 19:55:29 29.354- 29.394
FO-29 20 Jan 19:44:36 19:49:32 42° 99° (E) 19:54:30 435.910
Max Valier Satellite 20 Jan 19:48:10 19:49:28 12° 65° (ENE) 19:50:47 145.860
BEESAT 2 20 Jan 19:56:31 20:00:15 39° 244° (WSW) 20:03:57 435.950
AAUSAT CUBESAT 2 20 Jan 19:59:02 20:02:03 20° 267° (W) 20:05:04 437.432
EO-88 20 Jan 20:07:18 20:08:52 12° 66° (ENE) 20:10:28 145.990 - 145.960
Oscar 11 20 Jan 20:11:13 20:15:18 39° 262° (W) 20:19:24 .
PCSat 20 Jan 20:35:19 20:38:21 15° 256° (WSW) 20:41:21 145.827
DELFI C3 20 Jan 20:36:52 20:40:46 72° 76° (ENE) 20:44:40 145.870
nSIGHT-1 20 Jan 20:53:03 20:56:10 56° 327° (NNW) 20:59:17 .
STRAND 1 20 Jan 20:58:17 21:01:37 18° 297° (WNW) 21:04:57 437.568
YUBILEINY 20 Jan 20:58:50 21:01:33 12° 73° (ENE) 21:04:15 435.215
ISS 20 Jan 21:05:08 21:08:22 65° 326° (NW) 21:11:37 437.550
AO-85 20 Jan 21:15:11 21:20:03 53° 243° (WSW) 21:25:11 145.980
Max Valier Satellite 20 Jan 21:19:12 21:22:49 48° 260° (W) 21:26:28 145.860
TIGRISAT 20 Jan 21:25:58 21:30:32 47° 99° (E) 21:35:02 435.000
LO-87 20 Jan 21:26:56 21:28:48 14° 66° (ENE) 21:30:41 145.935 - 145.965
FO-29 20 Jan 21:30:28 21:34:24 22° 296° (WNW) 21:38:20 435.910
EO-88 20 Jan 21:38:38 21:42:07 42° 261° (W) 21:45:37 145.990 - 145.960
UNISAT 6 20 Jan 21:41:06 21:45:50 76° 103° (ESE) 21:50:31 437.425
PRISM 20 Jan 21:57:30 22:00:39 21° 95° (E) 22:03:47 437.425
ESTCUBE 1 20 Jan 22:22:50 22:27:16 58° 74° (ENE) 22:31:44 437.505/2401.250
SPROUT 20 Jan 22:23:58 22:26:03 13° 64° (ENE) 22:28:08 437.525
nSIGHT-1 20 Jan 22:30:57 22:32:52 15° 345° (NNW) 22:34:47 .
AIST 2D 20 Jan 22:35:46 22:38:43 25° 96° (E) 22:41:38 435.315
ISS 20 Jan 22:43:10 22:45:20 16° 344° (NNW) 22:47:30 437.550
YUBILEINY 20 Jan 22:47:51 22:56:35 69° 93° (E) 23:05:18 435.215
LO-87 20 Jan 22:58:35 23:01:52 35° 263° (W) 23:05:11 145.935 - 145.965
TIGRISAT 20 Jan 23:03:36 23:06:50 19° 295° (WNW) 23:10:02 435.000
DUCHIFAT 1 20 Jan 23:06:52 23:09:07 14° 92° (E) 23:11:21 145.980
EO-79 20 Jan 23:07:13 23:10:18 19° 93° (E) 23:13:23 145.935-145.965
UNISAT 6 20 Jan 23:20:01 23:21:52 12° 298° (WNW) 23:23:44 437.425
NO-84 20 Jan 23:24:21 23:26:58 32° 37° (NE) 23:29:39 435.350 FM
PRISM 20 Jan 23:32:22 23:35:54 29° 291° (WNW) 23:39:25 437.425
POLYITAN 1 20 Jan 23:41:21 23:45:31 46° 99° (E) 23:49:37 437.675
NANOSAT C BR1 20 Jan 23:57:02 00:01:16 61° 101° (E) 00:05:28 145.865
SPROUT 20 Jan 23:57:17 00:01:26 55° 260° (W) 00:05:38 437.525
VELOX 1 20 Jan 23:59:17 00:03:40 83° 75° (ENE) 00:08:04 145.980
ESTCUBE 1 21 Jan 00:02:17 00:04:24 13° 269° (W) 00:06:32 437.505/2401.250
UKube-1 21 Jan 00:07:10 00:08:46 12° 62° (ENE) 00:10:21 .
BUGSAT 1 21 Jan 00:08:25 00:10:55 15° 92° (E) 00:13:26 437.445
nSIGHT-1 21 Jan 00:08:50 00:10:05 12° 6° (N) 00:11:20 .
AIST 2D 21 Jan 00:09:22 00:11:40 17° 292° (WNW) 00:13:58 435.315
QB50P2 21 Jan 00:10:59 00:15:16 71° 284° (WNW) 00:19:30 145.880/145.840
DX 1 21 Jan 00:16:39 00:20:10 25° 68° (ENE) 00:23:41 434.975-435.025
O/OREOS (USA 219) 21 Jan 00:19:27 00:23:57 80° 111° (ESE) 00:28:28 437.305
ISS 21 Jan 00:21:26 00:22:52 12° 5° (N) 00:24:17 437.550
50 SAT 21 Jan 00:33:20 00:35:54 25° 71° (ENE) 00:38:31 437.505
DUCHIFAT 1 21 Jan 00:40:54 00:45:01 48° 287° (WNW) 00:49:06 145.980
Gurwin Techsat 1B 21 Jan 00:41:30 00:45:03 18° 92° (E) 00:48:34 435.225
EO-79 21 Jan 00:42:14 00:46:08 35° 289° (WNW) 00:50:02 145.935-145.965
YUBILEINY 21 Jan 00:47:06 00:54:07 26° 293° (WNW) 01:01:10 435.215
Oscar 19 21 Jan 00:55:20 00:59:56 32° 96° (E) 01:04:30 437.125/150
NO-84 21 Jan 01:01:54 01:03:57 17° 231° (SW) 01:06:04 435.350 FM
AO-91 21 Jan 01:07:45 01:12:09 50° 100° (E) 01:16:58 145.960
POLYITAN 1 21 Jan 01:18:16 01:20:53 16° 295° (WNW) 01:23:30 437.675
ITUPSAT 1 21 Jan 01:23:12 01:25:42 14° 62° (ENE) 01:28:13 437.325
NANOSAT C BR1 21 Jan 01:34:41 01:36:26 12° 297° (WNW) 01:38:10 145.865
UKube-1 21 Jan 01:39:56 01:44:12 66° 258° (WSW) 01:48:29 .
BUGSAT 1 21 Jan 01:42:25 01:46:28 44° 288° (WNW) 01:50:30 437.445
nSIGHT-1 21 Jan 01:44:20 01:47:05 26° 26° (NNE) 01:49:49 .
MOZHAYETS 4 21 Jan 01:52:00 01:56:23 44° 72° (ENE) 02:00:49
DX 1 21 Jan 01:52:28 01:56:13 28° 264° (W) 01:59:59 434.975-435.025
ISS 21 Jan 01:57:25 02:00:13 25° 25° (NNE) 02:03:00 437.550
CUBESAT XI-V 21 Jan 01:57:32 01:59:48 14° 62° (ENE) 02:02:04 437.345
BEESAT 21 Jan 02:00:48 02:05:03 33° 69° (ENE) 02:09:20 436.000
O/OREOS (USA 219) 21 Jan 02:02:20 02:03:57 12° 309° (NW) 02:05:34 437.305
50 SAT 21 Jan 02:06:09 02:07:38 13° 266° (W) 02:09:09 437.505
Gurwin Techsat 1B 21 Jan 02:20:07 02:25:19 56° 288° (WNW) 02:30:30 435.225
Oscar 19 21 Jan 02:34:40 02:39:10 31° 293° (WNW) 02:43:37 437.125/150
AO-91 21 Jan 02:45:21 02:48:18 17° 293° (WNW) 02:51:24 145.960
ITUPSAT 1 21 Jan 02:58:12 03:02:56 66° 258° (WSW) 03:07:44 437.325
FALCONSAT 3 21 Jan 03:11:00 03:12:56 14° 156° (SSE) 03:14:51 435.103
nSIGHT-1 21 Jan 03:20:19 03:23:19 40° 223° (SW) 03:26:19 .
KKS-1 21 Jan 03:22:42 03:25:13 15° 63° (ENE) 03:27:45 437.445
AO-7 21 Jan 03:23:12 03:31:32 63° 104° (ESE) 03:39:45 .
MOZHAYETS 4 21 Jan 03:30:36 03:33:43 18° 268° (W) 03:36:53
CUBESAT XI-V 21 Jan 03:31:55 03:36:35 67° 259° (W) 03:41:16 437.345
ISS 21 Jan 03:33:39 03:36:48 46° 222° (SW) 03:39:57 437.550
BEESAT 21 Jan 03:38:54 03:42:49 25° 265° (W) 03:46:46 436.000
ITAMSAT 1 21 Jan 03:40:19 03:45:28 59° 102° (ESE) 03:50:35 435.822/435.867
DOVE 4 21 Jan 03:43:20 03:46:03 16° 93° (E) 03:48:48 437.250
SO-50 21 Jan 04:43:42 04:47:49 38° 116° (ESE) 04:52:01 436.795
FALCONSAT 3 21 Jan 04:48:08 04:51:26 31° 170° (S) 04:54:43 435.103
KKS-1 21 Jan 04:57:02 05:01:19 52° 259° (W) 05:05:39 437.445
STRAND 1 21 Jan 04:59:30 04:59:59 10° 58° (ENE) 05:00:30 437.568
XW-2F 21 Jan 05:03:29 05:05:01 12° 91° (E) 05:06:33 145.980 - 146.000
XW-2D 21 Jan 05:12:22 05:15:00 18° 94° (E) 05:17:37 145.860 - 145.880
STARS 21 Jan 05:12:22 05:16:43 87° 78° (ENE) 05:21:07 437.465
NUDT-PHONESAT 21 Jan 05:12:52 05:13:42 11° 91° (E) 05:14:31 437.300
CUTE-I 21 Jan 05:15:20 05:19:03 19° 93° (E) 05:22:45 437.470
HO-68 21 Jan 05:15:38 05:17:16 11° 87° (E) 05:18:55 435.675
M-CUBED/EXP-1 PRIME 21 Jan 05:18:47 05:22:06 61° 290° (WNW) 05:25:18 437.505
